TITAN 3C TRANSTAGE DEB, 26524

Orbit data source: Space-Track

TITAN 3C TRANSTAGE DEB, 26524 is space debris in HEO originally from a launch on Tue, 21 Dec 1965 UTC launched from the Air Force Eastern Test Range (AFETR). Debris objects in space refer to the collection of defunct objects orbiting the Earth. Examples of debris include non-operational satellites, rocket bodies, and fragments generated from explosions, collisions, or faulty payload assembly.

Loading next visibility...
Identifier
26524, 1965-108AK
Orbit
HEO
Country
Flag of USUS
Related business
Manufacturer
Unknown
Mission
Spacecraft
Bus & Motor
Unknown
Mass
Unknown
Launch date (UTC)
1965-12-21 (60 years ago)
Launch vehicle
Unknown
Launch site
Air Force Eastern Test Range (AFETR)
Object type
Payload
Rocket body
Debris
Shape & HBR
Unknown
Radar Cross Section
Medium (>0.1 m² and <1 m²)

Expand to show TLE details & history
Last TLE update: 4 days ago

TLE from 4 days ago
0 TITAN 3C TRANSTAGE DEB
1 26524U 65108AK  25257.00872287  .00000879  00000-0  11969-1 0  9995
2 26524  26.6346 213.0193 6689642 347.5050  14.0325  2.81465499 36071
Epoch: 2025-09-14T00:12Z
TLE epoch observation values (Epoch: 2025-09-14T00:12:33.655Z)
Latitude
23.43695°
Longitude
-84.05359°
Altitude
3,558.63 km
Speed
7.838 km/s
True Right ascension
18h 09m 16s
True Declination
23° 20' 49"
Sunlit
Object was in daylight at epoch
Visualization orbit readout
Latitude
Unknown
Longitude
Unknown
Altitude
Unknown
Speed
Unknown
Apparent Right ascension
Unknown
Apparent Declination
Unknown
Sunlit
N/A
Visualization observer readout
Local Sidereal Time
04:05:04
Azimuth
Unknown
Elevation
Unknown
Doppler factor
Unknown
Orbital elements
Apogee altitude
28,992.115 km
Perigee altitude
637.484 km
Semi-major axis
21,192.936 km
Eccentricity
0.66896
Inclination
26.6346°
RAAN
213.0193°
Arg. of periapsis
347.505°
True anomaly
74.17352°
Mean anomaly
14.0325°
Eccentric anomaly
37.213°
Mean motion
0.70349 °/min
Orbital period
511.74 mins
BSTAR
0.011969
Loading maneuver chart data...
Computing Atmospheric mass density...

Documentation

Showing up to 5 results
|